Weather History for Chester, CT

Change the Weather History Date:

Saturday, April 6, 2013

  Actual Average (KHVN) Record (KHVN)
Temperature  
Mean Temperature 40 °F -  
Max Temperature 48 °F 51 °F 66 °F (1980)
Min Temperature 33 °F 37 °F 20 °F (1982)
Degree Days  
Heating Degree Days 24    
Moisture  
Dew Point 13 °F    
Average Humidity 38    
Maximum Humidity 75    
Minimum Humidity 13    
Precipitation  
Precipitation 0.00 in - - ()
Sea Level Pressure  
Sea Level Pressure 30.20 in    
Wind  
Wind Speed 11 mph (NW)    
Max Wind Speed 18 mph    
Max Gust Speed 32 mph    
Visibility 10 miles    
Events      
Averages and records for this station are not official NWS values.
T = Trace of Precipitation, MM = Missing Value Source: NWS Daily Summary

Daily Weather History Graph

Daily Weather History Graph

Search for Another Location

Airport:

Trip Planner

Search our weather history database for the weather conditions in past years. The results will help you decide how hot, cold, wet, or windy it might be!

Date:

Astronomy

Apr. 06, 2013 Rise Set
Actual Time 6:24 AM EDT 7:20 PM EDT
Civil Twilight 5:56 AM EDT 7:49 PM EDT
Nautical Twilight 5:22 AM EDT 8:22 PM EDT
Astronomical Twilight 4:48 AM EDT 8:57 PM EDT
Moon 4:09 AM EDT (4/6) 3:44 PM EDT (4/6)
Length of Visible Light 13h 52m
Length of Day
12h 56m
Waning Crescent, 15% of the Moon is Illuminated
Apr 6
Waning Crescent
Apr 10
New
Apr 18
First Quarter
Apr 25
Full
May 2
Last Quarter

Hourly Weather History & Observations

Time (EDT) Temp. Windchill Dew Point Humidity Pressure Visibility Wind Dir Wind Speed Gust Speed Precip Events Conditions
12:15 AM 39.2 °F 30.5 °F 23.0 °F 52% 29.95 in 10.0 mi NNW 16.1 mph 27.6 mph N/A   Clear
12:35 AM 37.4 °F 28.2 °F 23.0 °F 56% 29.95 in 10.0 mi North 16.1 mph 23.0 mph N/A   Clear
12:55 AM 37.4 °F 29.8 °F 23.0 °F 56% 29.96 in 10.0 mi NNW 11.5 mph 17.3 mph N/A   Clear
1:15 AM 37.4 °F 31.4 °F 23.0 °F 56% 29.97 in 10.0 mi NNW 8.1 mph 18.4 mph N/A   Clear
1:35 AM 37.4 °F 30.3 °F 23.0 °F 56% 29.98 in 10.0 mi North 10.4 mph 19.6 mph N/A   Clear
1:55 AM 37.4 °F 30.3 °F 23.0 °F 56% 29.99 in 10.0 mi NNW 10.4 mph 23.0 mph N/A   Clear
2:15 AM 35.6 °F 29.9 °F 23.0 °F 60% 30.00 in 10.0 mi NNW 6.9 mph - N/A   Clear
2:35 AM 35.6 °F 29.9 °F 23.0 °F 60% 30.00 in 10.0 mi NNW 6.9 mph - N/A   Clear
2:55 AM 35.6 °F 28.0 °F 21.2 °F 56% 30.01 in 10.0 mi NW 10.4 mph 17.3 mph N/A   Clear
3:15 AM 35.6 °F 28.6 °F 21.2 °F 56% 30.02 in 10.0 mi NW 9.2 mph - N/A   Clear
3:35 AM 35.6 °F 27.5 °F 21.2 °F 56% 30.03 in 10.0 mi NW 11.5 mph 17.3 mph N/A   Clear
3:55 AM 35.6 °F 27.1 °F 21.2 °F 56% 30.05 in 10.0 mi NW 12.7 mph 18.4 mph N/A   Clear
4:15 AM 35.6 °F 26.2 °F 21.2 °F 56% 30.06 in 10.0 mi NW 15.0 mph 23.0 mph N/A   Clear
4:35 AM 35.6 °F 27.5 °F 19.4 °F 52% 30.07 in 10.0 mi NNW 11.5 mph 20.7 mph N/A   Clear
4:55 AM 35.6 °F 26.6 °F 17.6 °F 48% 30.08 in 10.0 mi NNW 13.8 mph 25.3 mph N/A   Clear
5:15 AM 33.8 °F 25.3 °F 17.6 °F 52% 30.09 in 10.0 mi NW 11.5 mph 17.3 mph N/A   Clear
5:35 AM 33.8 °F 27.7 °F 17.6 °F 52% 30.10 in 10.0 mi NW 6.9 mph - N/A   Partly Cloudy
5:55 AM 33.8 °F 27.0 °F 15.8 °F 48% 30.12 in 10.0 mi NNW 8.1 mph - N/A   Clear
6:15 AM 33.8 °F 23.9 °F 12.2 °F 41% 30.13 in 10.0 mi North 15.0 mph 23.0 mph N/A   Clear
6:35 AM 33.8 °F 25.3 °F 10.4 °F 38% 30.15 in 10.0 mi North 11.5 mph 23.0 mph N/A   Clear
6:55 AM 33.8 °F 24.3 °F 10.4 °F 38% 30.16 in 10.0 mi NNW 13.8 mph 24.2 mph N/A   Clear
7:15 AM 33.8 °F 22.8 °F 6.8 °F 32% 30.17 in 10.0 mi NNW 18.4 mph 28.8 mph N/A   Clear
7:35 AM 33.8 °F 23.5 °F 5.0 °F 30% 30.18 in 10.0 mi NNW 16.1 mph 32.2 mph N/A   Clear
7:55 AM 33.8 °F 24.8 °F 5.0 °F 30% 30.19 in 10.0 mi NW 12.7 mph 25.3 mph N/A   Clear
8:15 AM 33.8 °F 24.8 °F 5.0 °F 30% 30.20 in 10.0 mi North 12.7 mph 24.2 mph N/A   Clear
8:35 AM 35.6 °F 25.9 °F 3.2 °F 26% 30.21 in 10.0 mi NNW 16.1 mph 27.6 mph N/A   Clear
8:55 AM 35.6 °F 25.5 °F 3.2 °F 26% 30.21 in 10.0 mi North 17.3 mph 25.3 mph N/A   Clear
9:15 AM 35.6 °F 26.2 °F 3.2 °F 26% 30.22 in 10.0 mi North 15.0 mph 23.0 mph N/A   Clear
9:35 AM 37.4 °F 28.2 °F 5.0 °F 26% 30.22 in 10.0 mi NNW 16.1 mph 20.7 mph N/A   Clear
9:55 AM 37.4 °F 28.2 °F 5.0 °F 26% 30.23 in 10.0 mi NNW 16.1 mph 23.0 mph N/A   Clear
10:15 AM 39.2 °F 32.5 °F 3.2 °F 22% 30.24 in 10.0 mi NNE 10.4 mph - N/A   Clear
10:35 AM 39.2 °F 31.6 °F 3.2 °F 22% 30.24 in 10.0 mi NNE 12.7 mph 21.9 mph N/A   Clear
10:55 AM 39.2 °F 33.6 °F 1.4 °F 21% 30.25 in 10.0 mi North 8.1 mph 20.7 mph N/A   Clear
11:15 AM 41.0 °F 33.1 °F 1.4 °F 19% 30.25 in 10.0 mi North 15.0 mph 27.6 mph N/A   Clear
11:35 AM 41.0 °F 35.2 °F 1.4 °F 19% 30.25 in 10.0 mi NW 9.2 mph 25.3 mph N/A   Clear
11:55 AM 42.8 °F 37.0 °F 1.4 °F 18% 30.24 in 10.0 mi NNE 10.4 mph 20.7 mph N/A   Clear
12:15 PM 42.8 °F 37.5 °F 1.4 °F 18% 30.24 in 10.0 mi North 9.2 mph 19.6 mph N/A   Clear
12:35 PM 42.8 °F 38.0 °F 1.4 °F 18% 30.24 in 10.0 mi North 8.1 mph - N/A   Clear
12:55 PM 44.6 °F 39.2 °F 1.4 °F 17% 30.24 in 10.0 mi North 10.4 mph - N/A   Clear
1:15 PM 44.6 °F 40.2 °F 1.4 °F 17% 30.24 in 10.0 mi NNW 8.1 mph 18.4 mph N/A   Clear
1:35 PM 46.4 °F 41.5 °F 1.4 °F 16% 30.24 in 10.0 mi North 10.4 mph - N/A   Clear
1:55 PM 46.4 °F 41.5 °F 1.4 °F 16% 30.24 in 10.0 mi NNW 10.4 mph - N/A   Clear
2:15 PM 46.4 °F 43.5 °F -0.4 °F 14% 30.24 in 10.0 mi North 5.8 mph - N/A   Clear
2:35 PM 46.4 °F 42.4 °F -0.4 °F 14% 30.23 in 10.0 mi NNW 8.1 mph - N/A   Clear
2:55 PM 46.4 °F - 1.4 °F 16% 30.23 in 10.0 mi Calm Calm - N/A   Clear
3:15 PM 46.4 °F 41.9 °F 1.4 °F 16% 30.23 in 10.0 mi NW 9.2 mph - N/A   Clear
3:35 PM 48.2 °F - 1.4 °F 15% 30.23 in 10.0 mi NNW 5.8 mph - N/A   Clear
3:55 PM 46.4 °F - -0.4 °F 14% 30.23 in 10.0 mi Calm Calm - N/A   Clear
4:15 PM 48.2 °F - -0.4 °F 13% 30.24 in 10.0 mi NNE 8.1 mph - N/A   Clear
4:35 PM 46.4 °F 44.3 °F 12.2 °F 25% 30.25 in 10.0 mi South 4.6 mph - N/A   Clear
4:55 PM 46.4 °F 42.4 °F 12.2 °F 25% 30.26 in 10.0 mi SSW 8.1 mph - N/A   Clear
5:15 PM 46.4 °F 42.4 °F 12.2 °F 25% 30.26 in 10.0 mi South 8.1 mph - N/A   Clear
5:35 PM 44.6 °F 40.7 °F 12.2 °F 27% 30.27 in 10.0 mi WSW 6.9 mph - N/A   Clear
5:55 PM 44.6 °F 40.7 °F 10.4 °F 25% 30.27 in 10.0 mi SW 6.9 mph - N/A   Clear
6:15 PM 44.6 °F 40.7 °F 10.4 °F 25% 30.28 in 10.0 mi WSW 6.9 mph - N/A   Clear
6:35 PM 42.8 °F 39.3 °F 8.6 °F 25% 30.29 in 10.0 mi SW 5.8 mph - N/A   Clear
6:55 PM 42.8 °F 40.1 °F 8.6 °F 25% 30.29 in 10.0 mi WSW 4.6 mph - N/A   Clear
7:15 PM 42.8 °F 40.1 °F 8.6 °F 25% 30.30 in 10.0 mi SW 4.6 mph - N/A   Clear
7:35 PM 41.0 °F 37.1 °F 10.4 °F 29% 30.30 in 10.0 mi SSW 5.8 mph - N/A   Clear
7:55 PM 41.0 °F 36.4 °F 19.4 °F 42% 30.31 in 10.0 mi WSW 6.9 mph - N/A   Clear
8:15 PM 39.2 °F 35.9 °F 23.0 °F 52% 30.31 in 10.0 mi WSW 4.6 mph - N/A   Clear
8:35 PM 39.2 °F 35.0 °F 23.0 °F 52% 30.32 in 10.0 mi West 5.8 mph - N/A   Clear
8:55 PM 39.2 °F 35.9 °F 23.0 °F 52% 30.32 in 10.0 mi WSW 4.6 mph - N/A   Clear
9:15 PM 39.2 °F 37.0 °F 23.0 °F 52% 30.32 in 10.0 mi West 3.5 mph - N/A   Clear
9:35 PM 39.2 °F 37.0 °F 23.0 °F 52% 30.32 in 10.0 mi SSW 3.5 mph - N/A   Clear
9:55 PM 37.4 °F 34.9 °F 24.8 °F 60% 30.31 in 10.0 mi WSW 3.5 mph - N/A   Clear
10:15 PM 37.4 °F 34.9 °F 26.6 °F 65% 30.31 in 10.0 mi WSW 3.5 mph - N/A   Clear
10:35 PM 37.4 °F 32.8 °F 28.4 °F 70% 30.32 in 10.0 mi West 5.8 mph - N/A   Clear
10:55 PM 33.8 °F - 24.8 °F 70% 30.32 in 10.0 mi Calm Calm - N/A   Clear
11:15 PM 35.6 °F 32.8 °F 26.6 °F 70% 30.32 in 10.0 mi West 3.5 mph - N/A   Clear
11:35 PM 35.6 °F 30.7 °F 28.4 °F 75% 30.32 in 10.0 mi SW 5.8 mph - N/A   Clear
11:55 PM 35.6 °F 32.8 °F 28.4 °F 75% 30.31 in 10.0 mi WSW 3.5 mph - N/A   Clear